DW2505 Weather Reports


time (UTC)temp
F
wind
direction
speed
knots
gust
knots
rain 1hr
in
rain 24hr
in
rain mn
in
humidity
%
barometer
mb
20260508051512 47 237 1.7 6.1 0.00 0.00 0.19 44 1011.1
20260508050611 47 234 1.7 7.0 0.00 0.00 0.19 43 1010.9
20260508044812 48 236 1.7 5.2 0.00 0.00 0.19 42 1010.7
20260508043911 48 227 0.9 8.7 0.00 0.00 0.19 42 1011.0
20260508043012 48 248 1.7 7.0 0.00 0.00 0.19 41 1011.0
20260508041212 48 225 1.7 6.1 0.00 0.00 0.19 41 1011.1
20260508040311 49 230 4.3 7.0 0.00 0.00 0.19 38 1011.2
20260508035411 49 233 2.6 9.6 0.00 0.00 0.19 37 1011.2
20260508034511 49 234 4.3 7.8 0.00 0.00 0.19 35 1011.3
20260508033611 49 232 4.3 7.8 0.00 0.00 0.19 34 1011.2
20260508032711 49 241 1.7 5.2 0.00 0.00 0.19 33 1010.9
20260508025112 49 230 0.0 2.6 0.00 0.00 0.19 31 1010.6
20260508024214 49 235 0.9 2.6 0.00 0.00 0.19 32 1010.6
20260508022411 49 224 0.0 2.6 0.00 0.00 0.19 32 1010.5
20260508021511 49 224 0.0 3.5 0.00 0.00 0.00 33 1010.4
20260508020611 49 225 0.0 4.3 0.00 0.00 0.00 32 1010.4
20260508015711 49 209 2.6 4.3 0.00 0.00 0.00 32 1010.3
20260508014811 49 225 0.0 0.9 0.00 0.00 0.00 31 1010.0
20260508013911 50 225 0.0 1.7 0.00 0.00 0.00 28 1010.1
20260508012111 52 229 0.0 4.3 0.00 0.00 0.00 27 1010.1
20260508011212 53 220 1.7 4.3 0.00 0.00 0.00 24 1010.2
20260508010312 54 232 2.6 4.3 0.00 0.00 0.00 23 1010.1
20260508005412 55 236 0.9 5.2 0.00 0.00 0.00 23 1009.9
20260508004511 56 220 2.6 4.3 0.00 0.00 0.00 24 1009.9
20260508003611 54 227 0.9 4.3 0.00 0.00 0.00 23 1010.2
20260508002711 54 227 2.6 7.0 0.00 0.00 0.00 23 1010.0
20260508001811 54 224 2.6 5.2 0.00 0.00 0.00 23 1010.0
20260508000911 56 225 0.9 6.1 0.00 0.00 0.00 24 1009.8
20260508000011 56 225 3.5 7.8 0.00 0.00 0.00 23 1009.9
20260507235111 59 225 2.6 7.8 0.00 0.00 0.00 22 1010.0
20260507234211 54 229 3.5 7.8 0.00 0.00 0.00 22 1009.8
20260507233311 56 227 4.3 7.8 0.00 0.00 0.00 24 1010.0
20260507231512 55 281 0.9 7.8 0.00 0.00 0.00 24 1009.9
20260507230612 55 228 2.6 9.6 0.00 0.00 0.00 23 1010.1
20260507225711 55 222 2.6 9.6 0.00 0.00 0.00 21 1010.0
20260507224811 58 236 2.6 11.3 0.00 0.00 0.00 22 1010.1
20260507223911 57 218 6.1 9.6 0.00 0.01 0.00 23 1010.2
20260507223011 57 225 4.3 8.7 0.00 0.03 0.00 22 1010.0
20260507221211 57 236 2.6 6.1 0.00 0.08 0.00 25 1010.3
20260507220311 58 236 2.6 8.7 0.00 0.11 0.00 24 1010.3
20260507215412 57 262 3.5 7.8 0.00 0.11 0.00 25 1010.2
20260507214511 57 250 2.6 7.8 0.00 0.14 0.00 24 1010.3
20260507212711 57 229 1.7 8.7 0.00 0.16 0.00 27 1010.7
20260507211811 55 228 1.7 7.8 0.00 0.16 0.00 24 1010.5
20260507210911 58 231 5.2 9.6 0.00 0.16 0.00 26 1010.7
20260507205111 56 230 4.3 11.3 0.00 0.16 0.00 27 1010.6
20260507204211 54 212 4.3 11.3 0.00 0.16 0.00 24 1010.8
20260507203312 56 222 4.3 7.8 0.00 0.16 0.00 30 1010.8
20260507202412 54 237 4.3 8.7 0.00 0.16 0.00 28 1011.1
20260507201511 55 225 4.3 7.8 0.00 0.16 0.00 29 1010.9
20260507200611 51 225 2.6 6.1 0.00 0.16 0.00 29 1010.9
20260507195711 52 227 3.5 4.3 0.00 0.16 0.00 29 1011.2
20260507194811 51 223 2.6 4.3 0.00 0.16 0.00 30 1011.2
20260507193911 51 225 2.6 5.2 0.00 0.16 0.00 32 1011.2
20260507193012 49 229 1.7 7.0 0.00 0.16 0.00 32 1011.5
20260507191211 50 232 1.7 5.2 0.00 0.16 0.00 34 1011.4
20260507190311 49 234 1.7 6.1 0.00 0.16 0.00 35 1011.8
20260507185411 50 228 1.7 5.2 0.00 0.16 0.00 38 1011.6
20260507184511 49 223 1.7 7.8 0.00 0.16 0.00 34 1011.8
20260507183611 49 243 1.7 5.2 0.00 0.16 0.00 37 1011.8
20260507181811 49 233 1.7 7.0 0.00 0.16 0.00 41 1011.8
20260507180911 48 255 3.5 7.8 0.00 0.16 0.00 39 1011.9
20260507180011 49 225 0.9 7.0 0.00 0.16 0.00 36 1011.6
20260507175111 50 226 0.9 4.3 0.00 0.16 0.00 31 1011.4
20260507173311 50 237 1.7 6.1 0.00 0.16 0.00 25 1011.8
20260507172411 50 224 1.7 6.1 0.00 0.16 0.00 28 1011.7
20260507171512 51 225 0.9 6.1 0.00 0.16 0.00 32 1011.9
20260507170611 50 241 1.7 5.2 0.00 0.16 0.00 33 1012.0
20260507165711 49 217 0.9 5.2 0.00 0.16 0.00 35 1012.1
20260507164811 48 211 1.7 2.6 0.00 0.16 0.00 39 1012.2
20260507163914 47 214 0.9 4.3 0.00 0.16 0.00 41 1012.3
20260507163012 45 225 2.6 4.3 0.00 0.16 0.00 42 1012.3
20260507162111 45 229 0.0 3.5 0.00 0.16 0.00 41 1012.3
20260507161211 44 217 0.0 3.5 0.00 0.16 0.00 43 1012.6
20260507160311 42 215 1.7 4.3 0.00 0.16 0.00 44 1012.7
20260507155411 42 213 0.0 6.1 0.00 0.16 0.00 43 1012.5
20260507154512 41 211 1.7 6.1 0.00 0.16 0.00 42 1012.4
20260507153612 41 217 1.7 3.5 0.00 0.16 0.00 42 1012.7
20260507152711 41 218 0.0 2.6 0.00 0.16 0.00 43 1012.6
20260507151811 40 222 0.9 4.3 0.00 0.16 0.00 44 1012.8
20260507150911 40 223 0.9 4.3 0.00 0.16 0.00 46 1012.6
20260507150011 39 214 2.6 4.3 0.00 0.16 0.00 44 1012.7
20260507144212 39 207 1.7 2.6 0.00 0.16 0.00 47 1012.4
20260507142411 37 192 4.3 7.8 0.00 0.16 0.00 41 1012.6
20260507141512 36 210 0.0 5.2 0.00 0.16 0.00 44 1012.7
20260507140611 35 231 1.7 3.5 0.00 0.16 0.00 46 1012.5
20260507135711 35 229 0.0 4.3 0.00 0.16 0.00 46 1012.5
20260507134811 35 174 0.9 4.3 0.00 0.16 0.00 45 1012.5
20260507133912 34 191 2.6 7.8 0.00 0.16 0.00 49 1012.4
20260507133012 33 181 0.0 6.1 0.00 0.16 0.00 52 1012.5
20260507131211 30 229 0.0 1.7 0.00 0.16 0.00 60 1012.4
20260507130311 29 0 0.0 0.0 0.00 0.16 0.00 56 1012.1
20260507124511 30 177 0.0 2.6 0.00 0.16 0.00 52 1011.7
20260507123611 30 211 0.0 4.3 0.00 0.16 0.00 52 1011.6
20260507121811 28 242 0.9 2.6 0.00 0.16 0.00 53 1011.3
20260507120911 28 268 0.9 2.6 0.00 0.16 0.00 57 1011.4
20260507113311 27 208 0.9 1.7 0.00 0.16 0.00 57 1011.4
20260507111511 27 241 0.0 2.6 0.00 0.16 0.00 53 1011.4
20260507110611 28 225 0.9 1.7 0.00 0.16 0.00 56 1011.4
20260507105711 28 232 0.0 3.5 0.00 0.16 0.00 56 1011.6
20260507104811 26 239 0.0 1.7 0.00 0.16 0.00 55 1011.3
20260507103911 28 219 0.0 1.7 0.00 0.16 0.00 50 1011.1
20260507103011 29 224 0.9 2.6 0.00 0.16 0.00 52 1011.1
20260507102111 28 233 0.0 1.7 0.00 0.16 0.00 51 1011.4
20260507100311 27 218 0.9 1.7 0.00 0.16 0.00 54 1011.3
20260507094511 26 221 0.0 1.7 0.00 0.16 0.00 56 1011.4
20260507092711 28 315 2.6 4.3 0.00 0.16 0.00 59 1011.4
20260507091811 26 215 0.0 1.7 0.00 0.16 0.00 61 1011.6
20260507090911 26 211 0.0 2.6 0.00 0.16 0.00 63 1011.3
20260507090011 25 208 0.0 2.6 0.00 0.16 0.00 66 1011.6
20260507084211 26 220 0.9 1.7 0.00 0.16 0.00 61 1011.4
20260507083311 26 193 0.0 0.9 0.00 0.16 0.00 60 1011.6
20260507082411 27 201 0.0 2.6 0.00 0.16 0.00 60 1011.5
20260507081511 25 198 0.9 2.6 0.00 0.16 0.00 62 1011.7
20260507080611 26 200 0.0 0.9 0.00 0.16 0.00 61 1011.4
20260507075711 26 223 0.0 2.6 0.00 0.16 0.00 61 1011.6
20260507074811 26 231 0.9 2.6 0.00 0.16 0.00 63 1011.6
20260507073912 25 210 0.0 2.6 0.00 0.16 0.00 64 1011.7
20260507073011 26 200 0.0 4.3 0.00 0.16 0.00 62 1011.6
20260507072111 26 216 0.9 2.6 0.00 0.16 0.00 61 1011.8
20260507071212 27 167 0.0 2.6 0.00 0.16 0.00 62 1011.4
20260507070311 26 199 0.0 1.7 0.00 0.16 0.00 63 1011.5
20260507065411 26 218 0.0 3.5 0.00 0.16 0.00 62 1011.6
20260507064511 27 192 0.0 3.5 0.00 0.16 0.00 60 1011.5
20260507063611 26 237 0.0 2.6 0.00 0.16 0.00 64 1011.5
20260507062711 27 225 0.0 2.6 0.00 0.16 0.00 65 1011.7
20260507061811 26 181 0.0 1.7 0.00 0.16 0.00 66 1011.5
20260507060011 28 202 0.0 3.5 0.00 0.16 0.00 67 1011.3
20260507055111 26 190 0.0 0.9 0.00 0.16 0.00 71 1011.2